Yakutat, AK

2:38 PM AKDT on March 30, 2017 (GMT -0800)
Yakutat

Weather History for PAYA - February, 2013

Change the Weather History Date:

Wednesday, February 20, 2013

  Actual Average Record
Temperature  
Mean Temperature 34 °F 30 °F  
Max Temperature 35 °F 37 °F 52 °F (1977)
Min Temperature 33 °F 23 °F -19 °F (1949)
Degree Days  
Heating Degree Days 31 35  
Month to date heating degree days 607 711  
Since 1 July heating degree days 6006 5850  
Cooling Degree Days 0    
Month to date cooling degree days 0  
Year to date cooling degree days 0  
Moisture  
Dew Point 33 °F    
Average Humidity 0    
Maximum Humidity 0    
Minimum Humidity 0    
Precipitation  
Precipitation 0.77 in 0.38 in 3.42 in (1964)
Month to date precipitation 11.72 7.72  
Year to date precipitation 23.49 21.38  
Snow  
Snow 3.90 in 0.90 in 12.60 in (1976)
Month to date snowfall 28.7 20.0  
Since 1 July snowfall 99.1 95.0  
Snow Depth 9.00 in    
Sea Level Pressure  
Sea Level Pressure 29.24 in    
Wind  
Wind Speed 8 mph (East)    
Max Wind Speed 14 mph    
Max Gust Speed 21 mph    
Visibility 4 miles    
Events Rain , Snow    
T = Trace of Precipitation, MM = Missing Value Source: NWS Daily Summary

Daily Weather History Graph

Daily Weather History Graph

Search for Another Location

Airport or City:

Trip Planner

Search our weather history database for the weather conditions in past years. The results will help you decide how hot, cold, wet, or windy it might be!

Date:

Astronomy

Feb. 20, 2013 Rise Set
Actual Time 7:40 AM AKST 5:25 PM AKST
Civil Twilight 6:57 AM AKST 6:07 PM AKST
Nautical Twilight 6:10 AM AKST 6:55 PM AKST
Astronomical Twilight 5:22 AM AKST 7:43 PM AKST
Moon 12:06 PM AKST (2/20) 4:55 AM AKST (2/20)
Length of Visible Light 11h 10m
Length of Day
9h 45m
Waxing Gibbous, 77% of the Moon is Illuminated
Feb 20
Waxing Gibbous
Feb 25
Full
Mar 4
Last Quarter
Mar 11
New
Mar 19
First Quarter

Hourly Weather History & Observations

Time (AKST) Temp. Windchill Dew Point Humidity Pressure Visibility Wind Dir Wind Speed Gust Speed Precip Events Conditions
12:04 AM 33.8 °F 25.8 °F 32.0 °F 93% 29.44 in 4.0 mi East 10.4 mph 16.1 mph 0.00 in Snow Light Snow
12:16 AM 33.8 °F 25.8 °F 32.0 °F 93% 29.43 in 1.8 mi East 10.4 mph 17.3 mph 0.00 in Snow Light Snow
12:24 AM 33.8 °F 26.4 °F 32.0 °F 93% 29.42 in 1.5 mi East 9.2 mph 19.6 mph 0.00 in Snow Light Snow
12:30 AM 33.8 °F 26.4 °F 32.0 °F 93% 29.41 in 1.0 mi East 9.2 mph 17.3 mph 0.01 in Snow Light Snow
12:40 AM 33.8 °F 26.4 °F 32.0 °F 93% 29.41 in 0.8 mi East 9.2 mph - 0.02 in Snow Light Snow
12:48 AM 33.8 °F 26.4 °F 32.0 °F 93% 29.40 in 1.0 mi ENE 9.2 mph - 0.03 in Snow Light Snow
12:53 AM 33.1 °F 24.9 °F 32.0 °F 96% 29.40 in 1.0 mi ENE 10.4 mph - 0.03 in Snow Light Snow
1:53 AM 33.1 °F 25.5 °F 32.0 °F 96% 29.35 in 1.0 mi ENE 9.2 mph - 0.07 in Snow Light Snow
2:01 AM 33.8 °F 26.4 °F 32.0 °F 93% 29.34 in 1.0 mi ENE 9.2 mph - 0.01 in Snow Light Snow
2:49 AM 33.8 °F 25.3 °F 32.0 °F 93% 29.31 in 1.0 mi ENE 11.5 mph - 0.05 in Snow Light Snow
3:08 AM 33.8 °F 24.8 °F 32.0 °F 93% 29.29 in 1.0 mi ENE 12.7 mph 20.7 mph 0.02 in Snow Light Snow
3:53 AM 33.1 °F 23.9 °F 32.0 °F 96% 29.27 in 1.0 mi East 12.7 mph 18.4 mph 0.06 in Snow Light Snow
4:13 AM 33.8 °F 26.4 °F 32.0 °F 93% 29.26 in 1.5 mi East 9.2 mph - 0.01 in Snow Light Snow
4:20 AM 33.8 °F 26.4 °F 32.0 °F 93% 29.25 in 1.2 mi East 9.2 mph 17.3 mph 0.02 in Snow Light Snow
4:42 AM 33.8 °F 25.8 °F 32.0 °F 93% 29.25 in 1.5 mi East 10.4 mph - 0.03 in Snow Light Snow
4:49 AM 33.8 °F 25.8 °F 32.0 °F 93% 29.24 in 1.2 mi East 10.4 mph - 0.04 in Snow Light Snow
4:53 AM 33.1 °F 26.1 °F 32.0 °F 96% 29.25 in 1.2 mi East 8.1 mph 17.3 mph 0.04 in Snow Light Snow
5:02 AM 33.8 °F 25.3 °F 32.0 °F 93% 29.24 in 1.5 mi East 11.5 mph 18.4 mph 0.01 in Snow Light Snow
5:25 AM 33.8 °F 26.4 °F 32.0 °F 93% 29.24 in 1.2 mi East 9.2 mph 19.6 mph 0.03 in Snow Light Snow
5:53 AM 33.1 °F 26.9 °F 32.0 °F 96% 29.24 in 1.5 mi ESE 6.9 mph 17.3 mph 0.06 in Snow Light Snow
6:01 AM 33.8 °F 26.4 °F 32.0 °F 93% 29.24 in 3.0 mi East 9.2 mph - 0.01 in Snow Light Snow
6:26 AM 33.8 °F 27.0 °F 33.8 °F 100% 29.25 in 10.0 mi SE 8.1 mph - 0.03 in Rain Light Rain
6:34 AM 33.8 °F - 32.0 °F 93% 29.25 in 2.5 mi Calm Calm - 0.05 in Snow Light Snow
6:45 AM 33.8 °F 29.6 °F 32.0 °F 93% 29.25 in 5.0 mi NE 4.6 mph - 0.07 in Snow Light Snow
6:53 AM 33.1 °F 28.7 °F 33.1 °F 100% 29.25 in 7.0 mi East 4.6 mph - 0.08 in Rain Light Rain
7:11 AM 33.8 °F 28.6 °F 32.0 °F 93% 29.25 in 6.0 mi ESE 5.8 mph - 0.03 in Rain , Snow Light Snow
7:53 AM 33.1 °F 28.7 °F 33.1 °F 100% 29.25 in 7.0 mi ESE 4.6 mph - 0.06 in Snow Light Snow
8:30 AM 33.8 °F 27.0 °F 33.8 °F 100% 29.24 in 10.0 mi East 8.1 mph - 0.00 in   Overcast
8:34 AM 33.8 °F 27.7 °F 32.0 °F 93% 29.24 in 9.0 mi East 6.9 mph - 0.00 in   Light Ice Pellets
8:48 AM 33.8 °F 26.4 °F 33.8 °F 100% 29.23 in 6.0 mi East 9.2 mph - 0.01 in Rain Light Rain
8:53 AM 34.0 °F 27.2 °F 33.1 °F 96% 29.23 in 10.0 mi East 8.1 mph - 0.01 in Rain Light Rain
9:35 AM 33.8 °F 25.8 °F 33.8 °F 100% 29.22 in 10.0 mi East 10.4 mph 17.3 mph 0.00 in   Overcast
9:53 AM 34.0 °F 28.0 °F 33.1 °F 96% 29.22 in 6.0 mi East 6.9 mph - 0.00 in Rain , Snow Light Rain
9:59 AM 33.8 °F 26.4 °F 33.8 °F 100% 29.22 in 3.0 mi East 9.2 mph - 0.01 in   Light Ice Pellets
10:06 AM 33.8 °F 27.7 °F 33.8 °F 100% 29.22 in 2.0 mi East 6.9 mph - 0.02 in Rain , Snow Light Rain
10:11 AM 33.8 °F 27.0 °F 33.8 °F 100% 29.22 in 3.0 mi ESE 8.1 mph - 0.03 in Rain , Snow Light Rain
10:19 AM 33.8 °F 27.0 °F 33.8 °F 100% 29.21 in 5.0 mi ESE 8.1 mph - 0.03 in Rain , Snow Light Rain
10:42 AM 33.8 °F 26.4 °F 32.0 °F 93% 29.20 in 1.8 mi East 9.2 mph 17.3 mph 0.04 in Rain , Snow Light Rain
10:48 AM 33.8 °F 27.7 °F 32.0 °F 93% 29.20 in 0.8 mi ESE 6.9 mph 17.3 mph 0.05 in Rain , Snow Light Rain
10:53 AM 33.1 °F 26.1 °F 32.0 °F 96% 29.20 in 0.8 mi East 8.1 mph - 0.06 in Snow Light Snow
11:33 AM 33.8 °F 26.4 °F 32.0 °F 93% 29.19 in 1.0 mi East 9.2 mph 17.3 mph 0.06 in Snow Light Snow
11:44 AM 33.8 °F 26.4 °F 32.0 °F 93% 29.19 in 0.8 mi East 9.2 mph 16.1 mph 0.07 in Snow Light Snow
11:53 AM 33.1 °F 25.5 °F 32.0 °F 96% 29.19 in 0.8 mi East 9.2 mph - 0.08 in Snow Light Snow
12:53 PM 33.1 °F 26.9 °F 32.0 °F 96% 29.18 in 1.0 mi ESE 6.9 mph - 0.11 in Snow Light Snow
1:04 PM 33.8 °F 27.7 °F 32.0 °F 93% 29.18 in 2.0 mi East 6.9 mph - 0.02 in Snow Light Snow
1:13 PM 33.8 °F 26.4 °F 33.8 °F 100% 29.18 in 8.0 mi East 9.2 mph - 0.02 in Rain , Snow Light Rain
1:29 PM 33.8 °F 28.6 °F 33.8 °F 100% 29.18 in 7.0 mi SE 5.8 mph - 0.03 in Rain , Snow Light Rain
1:40 PM 33.8 °F 29.6 °F 33.8 °F 100% 29.18 in 2.5 mi East 4.6 mph - 0.05 in Rain , Snow Light Rain
1:43 PM 33.8 °F 29.6 °F 33.8 °F 100% 29.17 in 3.0 mi SE 4.6 mph - 0.05 in Rain , Snow Light Rain
1:53 PM 33.1 °F 26.1 °F 32.0 °F 96% 29.18 in 8.0 mi East 8.1 mph - 0.06 in Rain , Snow Light Rain
2:00 PM 33.8 °F 28.6 °F 32.0 °F 93% 29.17 in 10.0 mi SSE 5.8 mph - 0.00 in Rain , Snow Light Rain
2:10 PM 33.8 °F 27.7 °F 33.8 °F 100% 29.17 in 10.0 mi East 6.9 mph - 0.00 in Rain , Snow Light Rain
2:18 PM 33.8 °F 27.7 °F 33.8 °F 100% 29.17 in 10.0 mi East 6.9 mph - 0.00 in Rain , Snow Light Rain
2:53 PM 34.0 °F 27.2 °F 33.1 °F 96% 29.17 in 10.0 mi East 8.1 mph - 0.00 in   Overcast
3:11 PM 33.8 °F 27.7 °F 33.8 °F 100% 29.18 in 10.0 mi ESE 6.9 mph - 0.01 in Rain , Snow Light Rain
3:35 PM 33.8 °F 27.0 °F 33.8 °F 100% 29.18 in 9.0 mi East 8.1 mph - 0.01 in   Light Ice Pellets
3:46 PM 33.8 °F 30.8 °F 33.8 °F 100% 29.18 in 2.0 mi Variable 3.5 mph - 0.04 in Rain , Snow Light Rain
3:53 PM 34.0 °F 31.0 °F 33.1 °F 96% 29.19 in 4.0 mi Variable 3.5 mph - 0.05 in Rain , Snow Light Rain
4:10 PM 33.8 °F 29.6 °F 33.8 °F 100% 29.19 in 1.8 mi SE 4.6 mph - 0.01 in Rain , Snow Light Rain
4:18 PM 33.8 °F 27.7 °F 33.8 °F 100% 29.19 in 1.0 mi SE 6.9 mph - 0.05 in Rain , Snow Light Rain
4:25 PM 33.8 °F 29.6 °F 33.8 °F 100% 29.19 in 2.0 mi ESE 4.6 mph - 0.06 in Rain , Snow Light Rain
4:35 PM 33.8 °F 29.6 °F 33.8 °F 100% 29.19 in 5.0 mi East 4.6 mph - 0.08 in Rain Light Rain
4:53 PM 33.1 °F 28.7 °F 33.1 °F 100% 29.20 in 4.0 mi East 4.6 mph - 0.09 in Snow Light Snow
5:48 PM 33.8 °F 29.6 °F 33.8 °F 100% 29.21 in 10.0 mi East 4.6 mph - 0.02 in Rain Light Rain
5:53 PM 34.0 °F 29.8 °F 33.1 °F 96% 29.21 in 10.0 mi East 4.6 mph - 0.02 in   Overcast
6:38 PM 33.8 °F 29.6 °F 32.0 °F 93% 29.22 in 2.0 mi ESE 4.6 mph - 0.01 in Snow Light Snow
6:45 PM 33.8 °F 29.6 °F 32.0 °F 93% 29.22 in 1.5 mi ESE 4.6 mph - 0.02 in Snow Light Snow
6:51 PM 33.8 °F 30.8 °F 32.0 °F 93% 29.22 in 2.0 mi East 3.5 mph - 0.03 in Snow Light Snow
6:53 PM 33.1 °F 30.0 °F 32.0 °F 96% 29.22 in 2.0 mi East 3.5 mph - 0.03 in Snow Light Snow
7:03 PM 33.8 °F 28.6 °F 32.0 °F 93% 29.22 in 4.0 mi East 5.8 mph - 0.00 in Snow Light Snow
7:53 PM 33.1 °F 26.9 °F 32.0 °F 96% 29.23 in 3.0 mi East 6.9 mph - 0.01 in Snow Light Snow
8:14 PM 33.8 °F 28.6 °F 32.0 °F 93% 29.23 in 5.0 mi East 5.8 mph - 0.00 in Snow Light Snow
8:24 PM 33.8 °F 27.7 °F 32.0 °F 93% 29.23 in 4.0 mi East 6.9 mph - 0.00 in Snow Light Snow
8:32 PM 33.8 °F 28.6 °F 32.0 °F 93% 29.23 in 1.8 mi East 5.8 mph - 0.00 in Snow Light Snow
8:44 PM 33.8 °F 27.7 °F 32.0 °F 93% 29.23 in 3.0 mi East 6.9 mph - 0.01 in Snow Light Snow
8:53 PM 33.1 °F 26.9 °F 32.0 °F 96% 29.23 in 4.0 mi East 6.9 mph - 0.01 in Snow Light Snow
9:09 PM 33.8 °F 27.7 °F 32.0 °F 93% 29.23 in 9.0 mi East 6.9 mph - 0.00 in   Overcast
9:30 PM 33.8 °F 28.6 °F 32.0 °F 93% 29.23 in 2.5 mi East 5.8 mph - 0.01 in Snow Light Snow
9:33 PM 33.8 °F 28.6 °F 33.8 °F 100% 29.23 in 4.0 mi East 5.8 mph - 0.01 in Snow Light Snow
9:43 PM 33.8 °F 28.6 °F 33.8 °F 100% 29.22 in 9.0 mi East 5.8 mph - 0.01 in   Overcast
9:53 PM 33.1 °F 27.7 °F 33.1 °F 100% 29.22 in 10.0 mi East 5.8 mph - 0.01 in   Overcast
10:46 PM 33.8 °F 29.6 °F 32.0 °F 93% 29.22 in 7.0 mi ENE 4.6 mph - 0.01 in Snow Light Snow
10:53 PM 33.1 °F 27.7 °F 32.0 °F 96% 29.22 in 8.0 mi ENE 5.8 mph - 0.01 in Snow Light Snow
11:53 PM 34.0 °F 29.8 °F 32.0 °F 92% 29.22 in 10.0 mi NE 4.6 mph - 0.01 in Rain Light Rain